sat.trackr.live / text

‹ back to catalog

ASTRA 1P (SES-24)

NORAD 60086 · 2024-115A

PAYLOAD ACTIVE UNKNOWN

§ Identity

Operator
Country
SES
Launch date
2024-06-20
Launch site
AFETR
Launch vehicle
Mass (kg)
RCS (m²)

Purposes: comms

External: N2YO · Heavens-Above · Gunter

§ Orbital elements

Epoch: 2026-05-25T03:50:01.744224Z

Period
1,436.29 min
Inclination
0.0716°
Eccentricity
0.0001535
Mean motion
1.00258065 rev/d
Perigee alt
35,784.0 km
Apogee alt
35,796.9 km
Semi-major
42,168.6 km
B*
0.0000e+0
RAAN
33.0170°
Arg perigee
269.6635°
Mean anomaly
16.7688°
Rev number
696

§ Raw data

ASTRA 1P (SES-24)1 60086U 24115A   26145.15974241  .00000116  00000+0  00000+0 0  99902 60086   0.0716  33.0170 0001535 269.6635  16.7688  1.00258065  6965

JSON: /api/v1/satellites/60086 · /tle

For live sub-satellite position, see the globe view (requires WebGL).

§ Visibility from observer

Set your observer location to see the next 7 days of passes ≥ 10°. The values pass through the URL so the page stays shareable.

No JS? Fill the form by hand. The geolocation button needs JavaScript.